TimeMDT,TemperatureF,Dew PointF,Humidity,Sea Level PressureIn,VisibilityMPH,Wind Direction,Wind SpeedMPH,Gust SpeedMPH,PrecipitationIn,Events,Conditions,WindDirDegrees,DateUTC
1:53 AM,35.1,21.9,59,29.98,10.0,NE,3.5,-,N/A,,Clear,50,2013-04-01 07:53:00
2:53 AM,32.0,21.0,64,29.99,10.0,East,3.5,-,N/A,,Clear,100,2013-04-01 08:53:00
3:53 AM,28.0,19.9,72,30.00,10.0,SE,3.5,-,N/A,,Clear,130,2013-04-01 09:53:00
4:53 AM,28.9,21.0,72,29.99,10.0,ESE,10.4,-,N/A,,Clear,120,2013-04-01 10:53:00
5:53 AM,28.9,19.9,69,29.99,10.0,Calm,Calm,-,N/A,,Clear,0,2013-04-01 11:53:00
6:53 AM,30.0,21.0,69,30.00,10.0,SSW,5.8,-,N/A,,Clear,210,2013-04-01 12:53:00
7:53 AM,30.0,21.0,69,30.04,10.0,SSE,4.6,-,N/A,,Clear,160,2013-04-01 13:53:00
8:53 AM,34.0,23.0,64,30.04,10.0,Calm,Calm,-,N/A,,Clear,0,2013-04-01 14:53:00
9:53 AM,41.0,23.0,49,30.02,10.0,NNE,6.9,-,N/A,,Clear,30,2013-04-01 15:53:00
10:53 AM,44.1,23.0,43,30.01,10.0,NNE,8.1,-,N/A,,Clear,30,2013-04-01 16:53:00
12:53 PM,51.1,24.1,35,29.98,10.0,NNE,9.2,-,N/A,,Clear,30,2013-04-01 18:53:00
1:53 PM,55.0,24.1,30,29.95,10.0,NNE,6.9,-,N/A,,Clear,20,2013-04-01 19:53:00
2:53 PM,57.0,24.1,28,29.94,10.0,Variable,4.6,-,N/A,,Clear,0,2013-04-01 20:53:00
3:53 PM,60.1,23.0,24,29.93,10.0,Variable,5.8,-,N/A,,Clear,0,2013-04-01 21:53:00
4:53 PM,61.0,21.0,21,29.91,10.0,ENE,4.6,-,N/A,,Clear,60,2013-04-01 22:53:00
5:53 PM,61.0,21.0,21,29.90,10.0,NE,11.5,-,N/A,,Clear,50,2013-04-01 23:53:00
6:53 PM,57.9,21.9,25,29.91,10.0,NNE,11.5,-,N/A,,Clear,30,2013-04-02 00:53:00
7:53 PM,50.0,21.9,33,29.95,10.0,NE,9.2,-,N/A,,Clear,40,2013-04-02 01:53:00
8:53 PM,46.9,21.9,37,29.96,10.0,ENE,9.2,-,N/A,,Clear,60,2013-04-02 02:53:00
9:53 PM,44.1,21.9,42,29.96,10.0,East,3.5,-,N/A,,Clear,90,2013-04-02 03:53:00
10:53 PM,44.1,21.9,42,29.97,10.0,Calm,Calm,-,N/A,,Clear,0,2013-04-02 04:53:00
11:53 PM,33.1,19.9,59,30.00,10.0,Calm,Calm,-,N/A,,Clear,0,2013-04-02 05:53:00